[[{"header":{"parameterUnit":"m.s-1","parameterCategory":1,"la1":30.2991,"la2":30.254,"lo1":-89.0895,"lo2":-89.0444,"dy":0.0017,"dx":0.0017,"nx":28,"ny":28,"refTime":"2024-12-05T03:00:00:Z","depth":0,"parameterNumber":2,"parameterNumberName":"U-component_of_WINDS"},"data":[0,0,0,0,0,0,0,0,0,0,0,0,0,0,0,0,0,0,0,0,0,0,0,0,0,0,0,0,0,0,0,0,0,0,0,0,0,0,0,0,0,0,0,0,0,0,0,0,0,0,0,0,0,0,0,0,0,0,-1.9798,-1.9798,0,-1.9853,-1.9854,-1.9855,-1.98,-1.9798,-1.9795,-1.9793,-1.9851,-1.9855,-1.9858,0,0,0,0,0,0,0,0,0,0,0,0,0,-1.9643,-1.9646,-1.9798,-1.9798,-1.9799,-1.9853,-1.9854,-1.9855,-1.98,-1.9797,-1.9795,-1.9792,-1.985,-1.9854,-1.9858,0,0,0,0,0,0,0,0,0,0,0,0,0,-1.9706,-1.9648,-1.9798,-1.9778,-1.9777,-1.9853,-1.9854,-1.9855,-1.9801,-1.9797,-1.9794,-1.9791,-1.9849,-1.9854,-1.9859,-1.9957,0,0,-1.9875,-1.9878,0,0,0,0,0,0,0,0,-1.9702,-1.9712,-1.978,-1.978,-1.9779,-1.9816,-1.9821,-1.9889,-1.9801,-1.9792,-1.9793,-1.979,-1.9842,-1.9848,-1.9865,-1.996,-1.9962,-1.9876,-1.9879,-1.9881,-1.9883,0,0,0,0,0,0,0,-1.9698,-1.9709,-1.982,-1.9781,-1.978,-1.9767,-1.9772,-1.9833,-1.9835,-1.9792,-1.9788,-1.9796,-1.9841,-1.986,-1.9866,-1.9963,-1.9876,-1.988,-1.9884,-1.9886,-2.0139,-2.0142,0,0,0,0,0,0,-1.9696,-1.9706,-1.9818,-1.9821,-1.9732,-1.9772,-1.9778,-1.9807,-1.9834,-1.9835,-1.9798,-1.9793,-1.9853,-1.986,-1.9868,-1.9984,-1.9881,-1.9886,-1.9889,-2.0136,-2.014,-2.0144,0,0,0,0,0,0,-1.9693,-1.9706,-1.9816,-1.9762,-1.9775,-1.9778,-1.9812,-1.981,-1.983,-1.9838,-1.9838,-1.9818,-1.9851,-1.9861,-1.9935,-1.9986,-1.9889,-1.9894,-2.0131,-2.0137,-2.0142,-2.0218,0,0,0,0,0,0,-1.9689,-1.9706,-1.9743,-1.9764,-1.9778,-1.9882,-1.9815,-1.9814,-1.9839,-1.9832,-1.9857,-1.9858,-1.9849,-1.9927,-1.994,-1.9991,-1.9898,-2.0127,-2.0134,-2.014,-2.0211,-2.0225,-2.0237,0,0,0,0,0,-1.9683,-1.9763,-1.9746,-1.9759,-1.9826,-1.9885,-1.9893,-1.9881,-1.9843,-1.9881,-1.9886,-1.9857,-1.9978,-1.9935,-1.995,-2.0003,-2.0124,-2.0132,-2.014,-2.0205,-2.0222,-2.0237,0,0,0,0,0,0,-1.9749,-1.9765,-1.9746,-1.9835,-1.9859,-1.9876,-1.9923,-1.99,-1.9936,-1.9929,-1.9912,-1.9918,-1.9997,-2.0007,-1.996,-2.0098,-2.0044,-2.0056,-2.0089,-2.0106,-2.0118,-2.0115,-1.9902,0,0,0,0,0,-1.9774,-1.9821,-1.9832,-1.9909,-1.9922,-1.9921,-1.9946,-1.9935,-1.9959,-1.9969,-1.998,-2.0005,-2.0048,-2.0077,-2.0118,-2.0211,-2.0215,-2.0254,-2.0268,-2.0278,-2.0289,-2.0338,-2.0355,-2.017,-2.017,-2.017,0,0,-1.9826,-1.984,-1.9871,-1.9923,-1.994,-1.9989,-1.993,-1.9984,-2.002,-1.9977,-2.0048,-2.0057,-2.0083,-2.0168,-2.0205,-2.0179,-2.034,-2.0288,-2.0297,-2.0301,-2.0348,-2.0365,-2.0381,-2.0175,-2.0174,-2.0173,0,0,-1.9945,-1.9961,-2.0027,-2.0045,-2.0071,-2.0069,-2.0085,-2.0105,-2.0109,-2.0179,-2.0148,-2.019,-2.0265,-2.0285,-2.0305,-2.043,-2.0404,-2.0443,-2.0513,-2.0561,-2.0576,-2.0589,-2.0633,-2.0649,-2.0453,-2.0454,-2.0454,0,-2.0007,-2.0079,-2.0063,-2.012,-2.0143,-2.0105,-2.0171,-2.019,-2.0229,-2.0245,-2.0215,-2.0307,-2.0322,-2.041,-2.0441,-2.0458,-2.0475,-2.0441,-2.0575,-2.0588,-2.06,-2.0642,-2.0658,-2.0458,-2.0458,-2.0457,-2.0457,0,-2.0153,-2.0204,-2.0253,-2.0291,-2.032,-2.0381,-2.0374,-2.0405,-2.039,-2.0391,-2.0462,-2.0479,-2.0522,-2.0541,-2.0528,-2.0627,-2.061,-2.0577,-2.0523,-2.0622,-2.0661,-2.0677,-2.0465,-2.0463,-2.0462,-2.0461,0,0,-2.0318,-2.0344,-2.0363,-2.0379,-2.0404,-2.0443,-2.0502,-2.0543,-2.057,-2.0597,-2.0646,-2.0709,-2.0679,-2.0701,-2.0689,-2.0732,-2.0829,-2.0694,-2.0694,-2.0719,-2.0939,-2.0964,-2.0983,-2.0811,-2.0814,-2.0817,-2.0937,0,-2.0438,-2.054,-2.0527,-2.0625,-2.0671,-2.0634,-2.0685,-2.0706,-2.0708,-2.0747,-2.0749,-2.0795,-2.0751,-2.0764,-2.0804,-2.0809,-2.0873,-2.08,-2.0857,-2.0859,-2.0852,-2.1003,-2.103,-2.1142,-2.0952,-2.0954,-2.0956,0,-2.0593,-2.0625,-2.0728,-2.0744,-2.0763,-2.081,-2.0845,-2.0883,-2.0906,-2.0904,-2.0928,-2.0908,-2.0966,-2.091,-2.0989,-2.094,-2.0962,-2.0967,-2.0971,-2.0977,-2.0914,-2.1013,-2.1178,-2.1195,-2.098,-2.0978,-2.0977,0,-2.0703,-2.0772,-2.0842,-2.0856,-2.0878,-2.0911,-2.0922,-2.0941,-2.0966,-2.0997,-2.1013,-2.1051,-2.1071,-2.1101,-2.1091,-2.1051,-2.1172,-2.1115,-2.1173,-2.1173,-2.1201,-2.12,-2.1372,-2.1214,-2.1214,-2.1214,-2.1213,0,-2.084,-2.0904,-2.0891,-2.0935,-2.1005,-2.0988,-2.1058,-2.1064,-2.1081,-2.1124,-2.1094,-2.1135,-2.112,-2.116,-2.1152,-2.1219,-2.1228,-2.1229,-2.1226,-2.1232,-2.1232,-2.1247,-2.1239,-2.1218,-2.1217,-2.1216,-2.1215,0,-2.0976,-2.097,-2.1043,-2.1057,-2.1062,-2.1113,-2.1125,-2.1165,-2.1163,-2.1218,-2.123,-2.1229,-2.1274,-2.1267,-2.1317,-2.1312,-2.1395,-2.1383,-2.1388,-2.1385,-2.1443,-2.1438,-2.1632,-2.1656,-2.1482,-2.1484,-2.1485,0,-2.1064,-2.1112,-2.113,-2.1157,-2.117,-2.1213,-2.1238,-2.1222,-2.125,-2.1278,-2.1315,-2.1357,-2.139,-2.1464,-2.1467,-2.1505,-2.1494,-2.1559,-2.15,-2.1503,-2.1495,-2.1493,-2.1497,-2.1571,-2.1573,-2.1575,-2.1576,0,-2.122,-2.1215,-2.1252,-2.1288,-2.1318,-2.1346,-2.1371,-2.1394,-2.1381,-2.1413,-2.1458,-2.1484,-2.1535,-2.1577,-2.1612,-2.1622,-2.1598,-2.1595,-2.161,-2.1617,-2.1618,-2.1618,-2.1421,-2.1591,-2.1589,-2.1588,-2.1588,-2.1587,-2.1335,-2.1376,-2.1395,-2.1437,-2.1454,-2.1477,-2.1515,-2.1518,-2.1556,-2.1596,-2.1584,-2.1636,-2.1655,-2.17,-2.1714,-2.1753,-2.1729,-2.1752,-2.1757,-2.1763,-2.177,-2.1611,-2.176,-2.1759,-2.1759,-2.1759,-2.1758,0,-2.1491,-2.1501,-2.1539,-2.1574,-2.1607,-2.1579,-2.1605,-2.1634,-2.168,-2.17,-2.1733,-2.1785,-2.1825,-2.1831,-2.1869,-2.19,-2.1889,-2.191,-2.1908,-2.1911,-2.179,-2.1773,-2.1918,-2.1918,-2.1918,-2.1918,-2.1918,-2.1918,-2.1576,-2.1643,-2.1639,-2.1714,-2.1723,-2.1773,-2.179,-2.1811,-2.1827,-2.1886,-2.1919,-2.1922,-2.1936,-2.1975,-2.2011,-2.2011,-2.2027,-2.2052,-2.2049,-2.1935,-2.192,-2.1904,-2.1888,-2.2056,-2.2056,-2.2166,-2.2168,-2.2168]},{"header":{"parameterUnit":"m.s-1","parameterCategory":1,"la1":30.2991,"la2":30.254,"lo1":-89.0895,"lo2":-89.0444,"dy":0.0017,"dx":0.0017,"nx":28,"ny":28,"refTime":"2024-12-05T03:00:00:Z","depth":0,"parameterNumber":3,"parameterNumberName":"V-component_of_WINDS"},"data":[0,0,0,0,0,0,0,0,0,0,0,0,0,0,0,0,0,0,0,0,0,0,0,0,0,0,0,0,0,0,0,0,0,0,0,0,0,0,0,0,0,0,0,0,0,0,0,0,0,0,0,0,0,0,0,0,0,0,-5.8057,-5.8058,0,-5.8158,-5.816,-5.8161,-5.8081,-5.8078,-5.8074,-5.8071,-5.8169,-5.8175,-5.8181,0,0,0,0,0,0,0,0,0,0,0,0,0,-5.7788,-5.7794,-5.8057,-5.8058,-5.806,-5.8158,-5.816,-5.8161,-5.8082,-5.8078,-5.8073,-5.807,-5.8168,-5.8174,-5.8181,0,0,0,0,0,0,0,0,0,0,0,0,0,-5.7899,-5.7795,-5.8057,-5.8032,-5.8031,-5.8158,-5.816,-5.8161,-5.8083,-5.8077,-5.8072,-5.8068,-5.8165,-5.8174,-5.8182,-5.8337,0,0,-5.8209,-5.8212,0,0,0,0,0,0,0,0,-5.7893,-5.7909,-5.8034,-5.8034,-5.8033,-5.8102,-5.8101,-5.822,-5.8084,-5.8063,-5.8071,-5.8065,-5.8151,-5.816,-5.819,-5.8342,-5.8346,-5.8209,-5.8215,-5.8218,-5.8221,0,0,0,0,0,0,0,-5.7885,-5.7904,-5.8097,-5.8036,-5.8035,-5.8014,-5.8024,-5.8123,-5.8134,-5.8064,-5.8059,-5.8072,-5.8149,-5.8182,-5.8192,-5.8348,-5.8209,-5.8217,-5.8222,-5.8226,-5.8629,-5.8635,0,0,0,0,0,0,-5.7881,-5.7898,-5.8094,-5.81,-5.7949,-5.8023,-5.8034,-5.8085,-5.8133,-5.8135,-5.8076,-5.8068,-5.817,-5.8182,-5.8195,-5.8379,-5.8218,-5.8226,-5.8231,-5.8624,-5.8631,-5.8637,0,0,0,0,0,0,-5.7875,-5.7899,-5.809,-5.7998,-5.802,-5.8033,-5.8091,-5.809,-5.8122,-5.8142,-5.8143,-5.8108,-5.8166,-5.8183,-5.8303,-5.8381,-5.823,-5.8238,-5.8617,-5.8626,-5.8634,-5.8748,0,0,0,0,0,0,-5.7868,-5.7897,-5.7958,-5.8,-5.8026,-5.8198,-5.8095,-5.8095,-5.8138,-5.8128,-5.8172,-5.8174,-5.8164,-5.829,-5.8311,-5.839,-5.8245,-5.861,-5.8621,-5.8631,-5.8738,-5.8759,-5.8778,0,0,0,0,0,-5.7859,-5.7986,-5.7962,-5.7986,-5.8102,-5.8203,-5.8217,-5.8204,-5.8145,-5.8205,-5.8217,-5.8173,-5.8369,-5.8303,-5.8326,-5.8409,-5.8605,-5.8618,-5.863,-5.8728,-5.8755,-5.8778,0,0,0,0,0,0,-5.7952,-5.7991,-5.7965,-5.8109,-5.8154,-5.8189,-5.8264,-5.8233,-5.8293,-5.8281,-5.826,-5.827,-5.8396,-5.8414,-5.834,-5.856,-5.8478,-5.8495,-5.8544,-5.857,-5.859,-5.8582,-5.8252,0,0,0,0,0,-5.7989,-5.807,-5.8099,-5.8223,-5.8247,-5.8252,-5.8295,-5.8281,-5.8325,-5.8343,-5.8364,-5.8406,-5.8477,-5.8524,-5.8591,-5.874,-5.8747,-5.8808,-5.8828,-5.8845,-5.886,-5.8938,-5.8965,-5.8678,-5.8677,-5.8677,0,0,-5.8067,-5.8099,-5.815,-5.8243,-5.8275,-5.8357,-5.8268,-5.8359,-5.8418,-5.8356,-5.847,-5.8487,-5.8533,-5.8668,-5.8728,-5.8687,-5.8941,-5.8861,-5.8874,-5.888,-5.8954,-5.8981,-5.9005,-5.8686,-5.8684,-5.8683,0,0,-5.8251,-5.8284,-5.8391,-5.8425,-5.8476,-5.8478,-5.8504,-5.8545,-5.8554,-5.8669,-5.8623,-5.8692,-5.8816,-5.885,-5.8884,-5.9079,-5.904,-5.9101,-5.9207,-5.9284,-5.9306,-5.9326,-5.9395,-5.942,-5.9116,-5.9117,-5.9117,0,-5.8341,-5.8465,-5.8449,-5.8543,-5.8584,-5.8533,-5.864,-5.8673,-5.8742,-5.8771,-5.8724,-5.8877,-5.8904,-5.9045,-5.9093,-5.9122,-5.9149,-5.9096,-5.9305,-5.9325,-5.9343,-5.9408,-5.9434,-5.9124,-5.9123,-5.9122,-5.9122,0,-5.8572,-5.8658,-5.8738,-5.8807,-5.8857,-5.8957,-5.8955,-5.9007,-5.8988,-5.8995,-5.9111,-5.9142,-5.9213,-5.9245,-5.9228,-5.9384,-5.9356,-5.9308,-5.9224,-5.9378,-5.9438,-5.9463,-5.9134,-5.9131,-5.9129,-5.9127,0,0,-5.8818,-5.8878,-5.8907,-5.8937,-5.8989,-5.9054,-5.915,-5.9221,-5.9266,-5.9314,-5.9393,-5.9498,-5.9453,-5.9491,-5.9477,-5.9544,-5.9695,-5.9486,-5.9487,-5.9523,-5.9867,-5.9902,-5.9932,-5.9669,-5.9674,-5.9678,-5.9862,0,-5.9003,-5.9173,-5.9162,-5.9321,-5.9398,-5.935,-5.9434,-5.9473,-5.9482,-5.9547,-5.9555,-5.963,-5.9565,-5.9588,-5.9652,-5.9663,-5.9763,-5.9649,-5.974,-5.9744,-5.973,-5.9964,-6.0002,-6.0175,-5.9886,-5.989,-5.9893,0,-5.9242,-5.9301,-5.9469,-5.9507,-5.9539,-5.9615,-5.9679,-5.9743,-5.9785,-5.9786,-5.9829,-5.9802,-5.9897,-5.9811,-5.994,-5.9863,-5.9899,-5.991,-5.9916,-5.9923,-5.9827,-5.9976,-6.023,-6.0255,-5.993,-5.9927,-5.9925,0,-5.9404,-5.9524,-5.964,-5.9667,-5.9716,-5.977,-5.9792,-5.983,-5.9873,-5.9927,-5.9955,-6.0019,-6.0054,-6.0104,-6.0094,-6.0033,-6.0225,-6.0139,-6.0227,-6.0227,-6.0269,-6.0267,-6.0531,-6.0294,-6.0294,-6.0293,-6.0293,0,-5.9611,-5.9715,-5.9713,-5.9784,-5.9898,-5.9882,-5.9995,-6.001,-6.0044,-6.0116,-6.0077,-6.0144,-6.0129,-6.0195,-6.0188,-6.0294,-6.0311,-6.0312,-6.0309,-6.0316,-6.0315,-6.0339,-6.0326,-6.03,-6.0299,-6.0297,-6.0296,0,-5.9811,-5.9813,-5.9936,-5.9972,-5.9983,-6.0065,-6.0095,-6.016,-6.0165,-6.0256,-6.0276,-6.0284,-6.0359,-6.0355,-6.044,-6.0435,-6.0566,-6.0549,-6.0553,-6.0549,-6.0637,-6.0628,-6.0925,-6.0962,-6.0702,-6.0705,-6.0707,0,-5.9943,-6.0022,-6.0067,-6.0112,-6.0139,-6.0213,-6.0257,-6.0244,-6.0291,-6.0345,-6.0404,-6.0476,-6.0533,-6.0656,-6.0667,-6.0732,-6.0715,-6.0815,-6.0725,-6.0728,-6.0715,-6.0711,-6.0718,-6.0832,-6.0835,-6.0838,-6.084,0,-6.0177,-6.0174,-6.024,-6.0307,-6.0361,-6.0412,-6.0458,-6.0498,-6.0489,-6.0543,-6.0621,-6.0666,-6.0753,-6.0824,-6.0886,-6.0906,-6.0871,-6.0868,-6.0892,-6.0899,-6.0897,-6.0898,-6.06,-6.0861,-6.0859,-6.0857,-6.0856,-6.0855,-6.0346,-6.0413,-6.0455,-6.0529,-6.0563,-6.0608,-6.0671,-6.0684,-6.075,-6.0821,-6.0808,-6.0895,-6.0933,-6.1012,-6.1039,-6.1104,-6.1069,-6.1103,-6.1111,-6.112,-6.113,-6.0887,-6.1116,-6.1115,-6.1114,-6.1114,-6.1113,0,-6.0577,-6.0601,-6.067,-6.0737,-6.0795,-6.0759,-6.0808,-6.0858,-6.0936,-6.0976,-6.1033,-6.1121,-6.119,-6.1207,-6.1273,-6.1322,-6.1308,-6.134,-6.1335,-6.134,-6.1158,-6.1131,-6.135,-6.135,-6.135,-6.135,-6.135,-6.135,-6.0704,-6.0816,-6.0818,-6.0945,-6.0968,-6.1054,-6.1085,-6.1125,-6.1156,-6.1257,-6.1315,-6.1326,-6.1356,-6.1423,-6.1484,-6.1487,-6.1512,-6.1551,-6.1547,-6.1377,-6.1353,-6.1331,-6.1305,-6.1557,-6.1557,-6.1723,-6.1725,-6.1726]}]]